RADFXSAT-2 (AO-109)

Last updated on Sat Apr 13 2024 01:02:57 GMT+0100 (British Summer Time)

1 47311U 21002C 24102.95213384 .00595259 16126-3 13071-2 0 9993 2 47311 60.6597 317.6790 0007713 112.0192 248.1750 15.97708876180901
UTC large
Height (km)
Speed (km/s)
/
Latitude / Longitude
Inclination (degrees)
Orbital Period (minutes)
Azimuth
Elevation
Range (km)
Doppler Factor

Next 0 passes for location: London (51.5072 / 0.1276)

Sorry there are no passes over London.